User: anonymous   Login
Location: Bernay
(48.6766°N, 2.9386°E)
Time: 16:15:01
(UTC+00:00)
Language:

BREEZE-M DEB (TANK) - Orbit

View from above orbital plane
View from above orbital plane
View from above satellite
View from above satellite

Ground track
Ground track

The orbit is defined by the following mean orbital elements,

1 37187U          26069.54424934 +.00000000 +00000-0 +16277-2 0 00002
2 37187  49.5408 232.7592 5100245 139.3522 272.8840  5.40480741    04
Epoch (UTC): 10 March 2026 13:03:43
Eccentricity: 0.5100245
inclination: 49.5408°
perigee height: 342 km
apogee height: 14333 km
right ascension of ascending node: 232.7592°
argument of perigee: 139.3522°
revolutions per day: 5.40480741
mean anomaly at epoch: 272.8840°

The dashed part of the orbit path shows where the satellite is in the earth's shadow,  

DLR